Погода в Денисовке

Украина / Хмельницкая область     49°55′36″N   26°27′13″E
темп.,
°C
ветер,
м/с
пор.,
м/с
влажн.,
%
обл.,
%
осадки,
мм/ч
давл.,
гПа
погр.,
м
9 мая, вс
вс900:00+3з36911 0.0 1021104
03:00+2з38932 0.0 1023158
06:00+1зсз37940 0.0 1024120
09:00+7зсз34704 0.0 1025460
12:00+11зсз34484 0.0 10241550
15:00+14з244146 0.0 10242096
18:00+14з134216 0.0 10231927
21:00+9юв33605 0.0 102420
10 мая, пн
пн1000:00+7ююв48715 0.0 1026119
03:00+6ююв37745 0.0 1026100
06:00+5ююв48735 0.0 1025127
09:00+12ююв595919 0.0 1025441
12:00+16ююв785063 0.0 10241176
15:00+18ююв6748100 0.0 10231355
18:00+17юв575763 0.0 10221193
21:00+11юв4107772 0.0 1023171
11 мая, вт
вт1100:00+9юв411793 0.0 1024190
03:00+8юв411800 0.0 1023195
06:00+6вюв410830 0.0 1023187
09:00+12вюв69660 0.0 1023462
12:00+16вюв67460 0.0 10211067
15:00+18вюв56420 0.0 10201287
18:00+17вюв57575 0.0 10181182
21:00+12в4118321 0.0 1018247
12 мая, ср
ср1200:00+10вюв39934 0.0 1018176
03:00+9вюв399639 0.0 1016189
06:00+9в4109716 0.0 1016310
09:00+11в68730 0.0 1015700
12:00+14в675814 0.0 10141326
15:00+12вюв675983 0.0 10131433
18:00+12вюв366297 0.0 10121380
21:00+8в22775 0.0 101112
13 мая, чт
чт1300:00+6вюв34885 0.0 101059
03:00+5вюв36900 0.0 1009105
06:00+5вюв4109191 0.0 1008218
09:00+8вюв61296100 0.9 1007652
12:00+10ююв61389100 1.2 1007902
15:00+10ююв71292100 3.6 1007660
18:00+11ююв61091100 1.1 1007565
21:00+9ююв389582 1.1 1007192